User: anonymous   Login
Location: Argonnex
(45.9500°N, 6.1333°E)
Time: 22:59:12
(UTC+00:00)
Language:

Kosmos-1550 - Orbit

View from above orbital plane
View from above orbital plane
View from above satellite
View from above satellite

Ground track
Ground track

The orbit data is extracted from the following two-line orbital elements,

1 14965U 84043A   24052.75838626  .00000074  00000-0  63345-4 0  9998
2 14965  82.9727 122.3649 0025050 211.4713 273.3999 13.72900440993913
Epoch (UTC): 21 February 2024 18:12:04
Eccentricity: 0.0025050
inclination: 82.9727°
perigee height: 971 km
apogee height: 1007 km
right ascension of ascending node: 122.3649°
argument of perigee: 211.4713°
revolutions per day: 13.72900440
mean anomaly at epoch: 273.3999°
orbit number at epoch: 99391

The dashed part of the orbit path shows where the satellite is in the earth's shadow,  

DLR